www.pogodaiklimat.ru
ПОГОДА в Уэрленде
Время
и дата
14:53 05.02
15:53 05.02
16:53 05.02
17:53 05.02
18:53 05.02
19:53 05.02
20:53 05.02
21:53 05.02
22:53 05.02
23:53 05.02
00:53 06.02
01:53 06.02
02:53 06.02
03:53 06.02
04:53 06.02
05:53 06.02
06:53 06.02
07:53 06.02
08:53 06.02
09:53 06.02
10:53 06.02
11:53 06.02
12:53 06.02
13:53 06.02
14:53 06.02
15:53 06.02
16:53 06.02
17:53 06.02
18:53 06.02
19:53 06.02
20:53 06.02
22:53 06.02
23:53 06.02
01:53 07.02
02:53 07.02
03:53 07.02
04:53 07.02
05:53 07.02
06:53 07.02
07:53 07.02
08:53 07.02
09:53 07.02
10:53 07.02
11:53 07.02
12:53 07.02
13:53 07.02
14:53 07.02
15:53 07.02
Ветер
(напр.,м/с)
Видим. Явления Облачность Т
(С)
Тd
(С)
f
(%)
Тe
(С)
Тes
(С)
Комфортность P
(гПа)
Po
(гПа)
Тmin
(С)
Tmax
(С)
R
(мм)
R24
(мм)
S
(см)
штиль 0 16 км ясно +0.6 -5.0 66 0 +5 1009.3 860.0
штиль 0 16 км 2/0 3300 m
[Ac]
-0.6 -5.6 69 -1 +1 1009.6 860.0
штиль 0 16 км ясно -1.1 -5.0 75 -2 -1 1009.8 860.0 -5.6 +1.1
штиль 0 16 км ясно -2.8 -5.0 85 -4 -4 1010.0 860.3
штиль 0 16 км ясно -3.3 -6.1 81 -4 -4 1010.3 860.9
В 2 16 км 10/0 3000 m
[Ac]
-4.4 -5.6 91 -9 -9 1010.9 860.9
Ю 2 16 км 10/2 1800 m
[Ac]
-3.3 -5.0 88 -7 -7 1011.1 861.5
штиль 0 16 км 10/0 2550 m
[Ac]
-3.3 -5.0 88 -4 -4 1010.7 861.5
штиль 0 16 км 10/0 2400 m
[Ac]
-2.8 -5.0 85 -4 -4 1010.4 861.8 -5.0 -1.1
ЮЗ 2 16 км 10/0 2700 m
[Ac]
-3.9 -5.0 92 -8 -8 1010.5 861.8
штиль 0 16 км ясно -6.1 -6.7 96 -7 -7 1009.8 861.5
штиль 0 16 км 10/0 3000 m
[Ac]
-6.1 -7.2 92 -7 -7 1010.3 861.8
16 км 10/0 2700 m
[Ac]
-5.6 -6.1 96 -7 -7 1010.4 862.4
ЮВ 3 16 км 10/0 3000 m
[Ac]
-5.6 -6.7 92 -11 -11 1011.1 862.6
штиль 0 16 км 8/0 2250 m
[Ac]
-5.0 -6.1 92 -6 -6 1011.9 863.2 -7.2 -1.7
ЮЗ 3 16 км 10/8 1800 m
[Ac]
-6.1 -6.7 96 -12 -12 1013.8 864.4
Ю 2 16 км 10/8 1500 m
[Ac]
-3.9 -5.6 88 -8 -8 1014.9 865.5
ЮЗ 2 16 км 10/8 660 m
[Ac]
-4.4 -6.7 84 -9 -9 1016.8 866.7
Ю 4 16 км 10/0 2400 m
[Ac]
-2.8 -5.0 85 -9 -9 1016.5 867.0
Ю 2 16 км 10/0 2550 m
[Ac]
-1.1 -3.3 85 -5 -4 1017.5 868.2
ЮЗ 4 16 км 10/10 1650 м -0.6 -2.2 89 -6 -6 1018.2 868.7 -6.7 -0.6
СЗ 3 16 км 10/0 2850 m
[Ac]
+2.2 -3.3 67 -2 0 1018.0 869.0
СЗ 2 16 км 10/8 1500 m
[Ac]
+3.3 -3.3 62 +1 +1 1018.4 869.3
СЗ 2 16 км 10/0 2550 m
[Ac]
+3.9 -3.3 59 +2 +3 1018.3 869.0
С 6 16 км 8/0 2550 m
[Ac]
+4.4 -3.9 55 0 0 1018.6 869.6
З 3 16 км ясно +3.3 -3.9 59 0 +2 1019.2 869.9
ЮЗ 4 16 км ясно +1.7 -3.3 69 -3 -3 1019.8 870.2 +5.6
ЮЗ 3 16 км ясно -1.7 -5.0 78 -7 -7 1021.2 870.8
Ю 4 16 км ясно -3.9 -6.7 81 -10 -10 1021.7 871.1
ЮЗ 2 16 км ясно -3.9 -6.7 81 -8 -8 1022.0 871.3
Ю 4 16 км ясно -3.9 -7.2 78 -10 -10 1022.3 871.6
ЮВ 3 16 км ясно -6.7 -8.9 84 -12 -12 1023.1 872.5 -7.2 +1.1
штиль 0 16 км ясно -7.8 -9.4 88 -9 -9 1023.1 872.5
Ю 4 16 км ясно -11.7 -12.8 92 -19 -19 1024.0 873.1
Ю 2 16 км ясно -11.7 -12.8 92 -16 -16 1023.9 873.1
Ю 3 16 км ясно -11.1 -12.2 92 -17 -17 1024.5 873.4
штиль 0 16 км ясно -14.4 -15.6 91 -14 -14 1025.4 873.4 -14.4 -5.6
Ю 3 16 км ясно -12.8 -13.9 91 -19 -19 1026.1 873.7
Ю 2 16 км ясно -11.7 -12.8 92 -16 -16 1026.7 874.0
Ю 2 16 км ясно -12.2 -13.3 91 -17 -17 1027.5 874.5
штиль 0 16 км ясно -10.6 -12.2 88 -11 -10 1027.6 874.8
ЮЗ 2 16 км ясно -10.0 -11.7 87 -15 -13 1028.2 875.1
Ю 2 16 км ясно -5.0 -8.9 74 -9 -6 1027.6 875.4 -15.0 -5.0
С 2 16 км ясно -2.8 -7.8 68 -7 -2 1027.1 875.1
штиль 0 16 км ясно -1.1 -6.7 66 -2 +6 1026.7 874.5
штиль 0 16 км ясно +1.1 -6.1 59 +1 +8 1025.8 874.2
штиль 0 16 км ясно +1.7 -5.6 58 +1 +7 1025.4 874.0
Ю 5 16 км ясно +1.7 -5.0 61 -3 -2 1025.1 873.7
Местоположение метеостанции Worland Municipal Airport: широта 43.9658 долгота -107.9508 высота над уровнем моря 1288 м.
В архиве по умолчанию представлена погода в Уэрленде за последние 1-2 суток. Обновление информации о фактической погоде в базе происходит ежечасно! Архивные данные за месяц целиком и за предыдущие месяцы Вы можете получить, выбрав интересующий диапазон дат из раскрывающегося списка и нажав кнопку "Ввод!".
Внимание! Архив погоды МЕТАР в базе сайта по станциям, не включенным в климатический монитор, хранится не более 60 дней. Нет смысла пытаться выбрать более раннюю дату.
*Определитесь, кто Вы:
Внимание! Время в таблицах - местное (без учета летнего времени). Для получения всемирного времени необходимо вычесть поправку, которая равна -7 ч.
Смотрите также архив погоды в соседних городах и на ближайших метеорологических станциях:
Партнеры нашего сайта:      
Пояснения к столбцам:
  • Ветер - указаны скорость ветра в м/с - средняя за 10 мин, порывы в срок и между сроками (в фигурных скобках) и направление, откуда дует ветер: С - северный,
  • СВ - северо-восточный, В - восточный, ЮВ - юго-восточный, Ю - южный, ЮЗ - юго-западный, З - западный, СЗ - северо-западный.
  • Видимость - горизонтальная дальность видимости в метрах или километрах. При видимости от 1 до 10 км при отсутствии осадков обычно наблюдается дымка, при ухудшении видимости до 1 км и менее - туман. В сухую погоду видимость может ухудшаться дымом, пылью или мглою.
  • Явления - указаны атмосферные явления, наблюдавшиеся в срок или в последний час перед сроком; фигурными скобками обозначены явления, наблюдавшиеся между сроками (за 1-3 часа до срока); квадратными скобками обозначены град или гололедные отложения с указанием их диаметра в мм.
  • Облачность - указаны через наклонную черту общая и нижняя облачность в баллах и высота нижней границы облаков в метрах; квадратными скобками обозначены формы облаков: Ci - перистые, Cs - перисто-слоистые, Cc - перисто-кучевые, Ac - высококучевые, As - высокослоистые, Sc - слоисто-кучевые, Ns - слоисто-дождевые, Cu - кучевые, Cb - кучево-дождевые. Подробнее классификацию облаков см. в Атласе облаков (PDF).
  • T - Температура воздуха - температура, измеренная на высоте 2 м над землей.
  • Td - Температура точки росы - температура, при понижении до которой содержащийся в воздухе водяной пар достигнет насыщения.
  • f - Относительная влажность воздуха - влажноcть воздуха, измеренная на высоте 2 м над землей.
  • Te - Эффективная температура - температура, которую ощущает одетый по сезону человек в тени. Характеристика душности погоды. При расчете учитывается влияние влажности воздуха и скорости ветра на теплоощущения человека.
  • Tes - Эффективная температура на солнце - температура, которую ощущает человек, с поправкой на солнечный нагрев. Характеристика знойности погоды. Зависит от высоты солнца над горизонтом, облачности и скорости ветра. Ночью, в пасмурную погоду, а также при ветре 12 м/с и более поправка равна нулю.
  • P - Атмосферное давление - приведенное к уровню моря атмосферное давление.
  • Po - Атмосферное давление - измеренное на уровне метеостанции атмосферное давление.
  • Tmin - Минимальная температура - минимум температуры воздуха на высоте 2 м над землей.
  • Tmax - Максимальная температура - максимум температуры воздуха на высоте 2 м над землей.
  • R - Количество осадков - Количество выпавших осадков за период времени, мм. При наведении курсора мыши на число - период времени, за который выпало указанное количество осадков.
  • R24 - Количество осадков - Количество выпавших осадков за 24 часа, мм.
  • S - Снежный покров - Высота снежного покрова, см. При наведении курсора мыши на число - состояние снежного покрова и степень покрытия местности в баллах.